Location: Unspecified
(0.0000°N, 0.0000°E)
Time: 16:32:41
(UTC+00:00)

Tiangong 2 - Pass Details

Date: 16 December 2018
Orbit: 382 x 391 km, 42.8° (Epoch: 12 December)

Event Time Altitude Azimuth Distance (km) Brightness Sun altitude
Exits shadow 04:58:22 24° 302° (WNW) 835 2.1 -13.1°
Maximum altitude 05:00:03 65° 225° (SW) 426 1.1 -12.7°
Drops below altitude 10° 05:03:12 10° 143° (SE) 1,411 4.9 -12.0°
Sets 05:05:18 0° 140° (SE) 2,268 6.2 -11.5°
